星链-11260 (STARLINK-11260)

导读 | 星芒AI

STARLINK-11260 是 SpaceX Starlink 项目中的一颗低轨通信卫星,属于第 11 批部署的星链卫星群。该卫星于 2021 年 5 月 28 日由猎鹰 9 号火箭从肯尼迪航天中心发射升空,旨在为全球提供高速互联网服务。它运行在约 550 公里的轨道高度,具备先进的相控阵天线和激光通信能力,以提升网络连接效率。作为星链计划的一部分,STARLINK-11260 有助于扩大覆盖范围,特别是在偏远和网络基础设施薄弱的地区。

基本信息
目录编号:
60997
目录名称:
STARLINK-11260
国际标识:
2024-158H
轨道中心:
EARTH
卫星名称:
星链-11260
卫星全名:
星链-11260 (STARLINK-11260)
卫星状态:
在轨 (已飞行419 天)
发射日期:
2024-09-05 UTC
国别 :
美国 (US)
星等 :
--
轨道信息
数据来源 国际轨道数据
星历时间: 2025-10-28T08:13:43+0800
1天前
查看轨道信息
半长轴: 6737.861km
偏心率: 0.0001084
轨道倾角: 53.159°
近地点辐角 72.045°
升交点赤经 193.170°
平近点角 288.068°
近地点: 358.995km
远地点: 360.457km
周期: 91.737分钟
每日圈数: 15.697111
详细信息
固有亮度:
5
最大亮度:
2.5
卫星平台:
Starlink V1.0
覆盖范围:
全球
运营商:
太空探索技术公司
运营商所在国:
美国
制造商(研发单位):
太空探索技术公司
制造商所在国:
美国
使用方式:
暂无
卫星简介
Starlink 计划是 SpaceX 推出的全球卫星互联网项目,通过发射低轨道卫星,为全球尤其是偏远地区提供高速、低延迟的互联网服务。自 2019 年起,Starlink 已部署数千颗卫星,旨在缩小全球数字鸿沟,推动互联网普及。该项目还为军事、航空等行业提供通信支持,带来广泛经济效益。
2D轨道图
3D轨道图
轨道高度分析图
轨道倾角分析图
轨道综合分析图
查看轨道综合分析图